EJU4759 LFRS-LPPR

Flight info

Callsign EJU4759
Flight time 1h 18m
Altitude 37000
Route ERIGA DCT FUJTI DCT ATLEN DCT INSID T326 ASPOR
Aircraft A20N/M-SDE2E3FGHIJ1RWXY/LB1

Departure

Time 2026-05-05 08:27
Airport Nantes Atlantique Airport (LFRS)

Arrival

Time 2026-05-05 09:46
Airport Francisco de Sá Carneiro Airport (LPPR)
Time Latitude Longitude Altitude Speed Heading
2026-05-05 07:54 47.15769 -1.60345 84 ft 0 kts 127°
2026-05-05 08:19 47.15770 -1.60347 84 ft 1 kts 127°
2026-05-05 08:19 47.15780 -1.60366 87 ft 3 kts 127°
2026-05-05 08:19 47.15791 -1.60388 88 ft 3 kts 130°
2026-05-05 08:20 47.15805 -1.60408 85 ft 3 kts 156°
2026-05-05 08:20 47.15823 -1.60415 88 ft 3 kts 194°
2026-05-05 08:20 47.15832 -1.60411 86 ft 0 kts 207°
2026-05-05 08:22 47.15831 -1.60412 86 ft 0 kts 207°
2026-05-05 08:22 47.15821 -1.60419 88 ft 3 kts 207°
2026-05-05 08:22 47.15791 -1.60442 88 ft 7 kts 207°
2026-05-05 08:22 47.15741 -1.60480 87 ft 9 kts 207°
2026-05-05 08:23 47.15684 -1.60523 87 ft 10 kts 206°
2026-05-05 08:23 47.15613 -1.60577 92 ft 12 kts 207°
2026-05-05 08:23 47.15538 -1.60636 92 ft 13 kts 208°
2026-05-05 08:23 47.15447 -1.60707 94 ft 16 kts 208°
2026-05-05 08:24 47.15343 -1.60785 92 ft 17 kts 207°
2026-05-05 08:24 47.15225 -1.60873 91 ft 21 kts 206°
2026-05-05 08:24 47.15093 -1.60975 91 ft 22 kts 208°
2026-05-05 08:24 47.14949 -1.61087 92 ft 24 kts 208°
2026-05-05 08:25 47.14804 -1.61202 92 ft 21 kts 207°
2026-05-05 08:25 47.14666 -1.61302 90 ft 23 kts 207°
2026-05-05 08:25 47.14517 -1.61415 89 ft 25 kts 208°
2026-05-05 08:25 47.14358 -1.61538 87 ft 27 kts 208°
2026-05-05 08:26 47.14244 -1.61626 87 ft 17 kts 208°
2026-05-05 08:26 47.14170 -1.61707 84 ft 14 kts 239°
2026-05-05 08:26 47.14142 -1.61821 85 ft 10 kts 261°
2026-05-05 08:26 47.14170 -1.61908 84 ft 11 kts 326°
2026-05-05 08:27 47.14254 -1.61885 87 ft 23 kts 26°
2026-05-05 08:27 47.14633 -1.61598 93 ft 98 kts 28°
2026-05-05 08:27 47.15426 -1.60987 90 ft 156 kts 27°
2026-05-05 08:27 47.16386 -1.60216 783 ft 149 kts 22°
2026-05-05 08:28 47.17331 -1.60120 1602 ft 140 kts 333°
2026-05-05 08:28 47.18030 -1.61186 2008 ft 162 kts 296°
2026-05-05 08:28 47.18479 -1.62836 2484 ft 183 kts 293°
2026-05-05 08:28 47.19006 -1.64666 2932 ft 207 kts 296°
2026-05-05 08:29 47.19667 -1.66672 3474 ft 229 kts 298°
2026-05-05 08:29 47.20432 -1.68838 4096 ft 247 kts 299°
2026-05-05 08:29 47.21251 -1.71102 4960 ft 254 kts 299°
2026-05-05 08:30 47.22275 -1.76080 6766 ft 267 kts 264°
2026-05-05 08:30 47.21662 -1.78693 7642 ft 275 kts 245°
2026-05-05 08:30 47.20772 -1.81219 8545 ft 279 kts 244°
2026-05-05 08:30 47.19875 -1.83722 9456 ft 282 kts 244°
2026-05-05 08:31 47.18961 -1.86290 10288 ft 288 kts 244°
2026-05-05 08:31 47.18004 -1.89011 10613 ft 311 kts 244°
2026-05-05 08:31 47.16964 -1.91986 10941 ft 333 kts 244°
2026-05-05 08:31 47.15907 -1.95009 11638 ft 340 kts 243°
2026-05-05 08:32 47.14655 -1.97977 12433 ft 345 kts 234°
2026-05-05 08:32 47.13097 -2.00700 13237 ft 349 kts 228°
2026-05-05 08:32 47.11463 -2.03365 13995 ft 353 kts 228°
2026-05-05 08:32 47.09815 -2.06073 14711 ft 357 kts 228°
2026-05-05 08:33 47.08152 -2.08813 15414 ft 361 kts 227°
2026-05-05 08:33 47.06469 -2.11585 16112 ft 365 kts 227°
2026-05-05 08:33 47.04769 -2.14383 16800 ft 369 kts 227°
2026-05-05 08:33 47.03053 -2.17201 17474 ft 373 kts 227°
2026-05-05 08:34 47.01315 -2.20052 18159 ft 376 kts 227°
2026-05-05 08:34 46.99563 -2.22924 18742 ft 380 kts 227°
2026-05-05 08:34 46.97774 -2.25806 19331 ft 384 kts 224°
2026-05-05 08:34 46.95773 -2.28407 19927 ft 386 kts 216°
2026-05-05 08:35 46.93527 -2.30593 20483 ft 388 kts 207°
2026-05-05 08:35 46.91155 -2.32404 21051 ft 391 kts 205°
2026-05-05 08:35 46.88720 -2.34244 21612 ft 395 kts 205°
2026-05-05 08:35 46.86267 -2.36111 22169 ft 399 kts 206°
2026-05-05 08:36 46.83866 -2.38171 22706 ft 403 kts 209°
2026-05-05 08:36 46.81450 -2.40300 23268 ft 407 kts 209°
2026-05-05 08:36 46.79018 -2.42441 23760 ft 410 kts 208°
2026-05-05 08:36 46.76567 -2.44592 24249 ft 412 kts 208°
2026-05-05 08:37 46.74096 -2.46758 24719 ft 414 kts 208°
2026-05-05 08:37 46.71616 -2.48927 25190 ft 417 kts 208°
2026-05-05 08:37 46.69962 -2.50372 25490 ft 419 kts 208°
2026-05-05 08:37 46.66638 -2.53273 26076 ft 422 kts 208°
2026-05-05 08:38 46.64112 -2.55475 26507 ft 424 kts 208°
2026-05-05 08:38 46.61571 -2.57687 26933 ft 427 kts 208°
2026-05-05 08:38 46.59022 -2.59905 27346 ft 429 kts 207°
2026-05-05 08:38 46.57279 -2.61420 27613 ft 431 kts 207°
2026-05-05 08:39 46.54726 -2.63636 27995 ft 434 kts 207°
2026-05-05 08:39 46.52132 -2.65886 28377 ft 436 kts 207°
2026-05-05 08:39 46.49507 -2.68159 28742 ft 438 kts 207°
2026-05-05 08:39 46.46885 -2.70429 29101 ft 441 kts 207°
2026-05-05 08:40 46.44242 -2.72712 29432 ft 443 kts 207°
2026-05-05 08:40 46.41586 -2.75006 29764 ft 446 kts 207°
2026-05-05 08:40 46.38910 -2.77313 30090 ft 448 kts 207°
2026-05-05 08:40 46.36220 -2.79630 30371 ft 450 kts 207°
2026-05-05 08:41 46.33520 -2.81952 30661 ft 452 kts 208°
2026-05-05 08:41 46.30837 -2.84257 30950 ft 454 kts 208°
2026-05-05 08:41 46.28118 -2.86593 31287 ft 455 kts 209°
2026-05-05 08:41 46.25510 -2.89214 31673 ft 457 kts 216°
2026-05-05 08:42 46.23080 -2.92167 32056 ft 456 kts 218°
2026-05-05 08:42 46.20654 -2.95147 32437 ft 456 kts 218°
2026-05-05 08:42 46.18240 -2.98105 32824 ft 455 kts 218°
2026-05-05 08:42 46.15830 -3.01051 33177 ft 454 kts 218°
2026-05-05 08:43 46.13418 -3.03991 33525 ft 453 kts 218°
2026-05-05 08:43 46.11010 -3.06921 33881 ft 453 kts 218°
2026-05-05 08:43 46.08603 -3.09846 34171 ft 452 kts 218°
2026-05-05 08:43 46.06197 -3.12766 34445 ft 451 kts 218°
2026-05-05 08:44 46.03798 -3.15673 34701 ft 451 kts 218°
2026-05-05 08:44 46.01398 -3.18579 34958 ft 450 kts 219°
2026-05-05 08:44 45.98997 -3.21481 35203 ft 450 kts 219°
2026-05-05 08:44 45.96601 -3.24375 35454 ft 449 kts 219°
2026-05-05 08:45 45.94214 -3.27255 35702 ft 449 kts 219°
2026-05-05 08:45 45.91820 -3.30140 35919 ft 448 kts 219°
2026-05-05 08:45 45.89458 -3.32983 36137 ft 448 kts 219°
2026-05-05 08:45 45.87066 -3.35858 36355 ft 448 kts 219°
2026-05-05 08:46 45.84680 -3.38723 36585 ft 447 kts 219°
2026-05-05 08:46 45.82288 -3.41593 36772 ft 447 kts 219°
2026-05-05 08:46 45.79901 -3.44453 36950 ft 447 kts 219°
2026-05-05 08:47 45.75132 -3.50157 36951 ft 446 kts 219°
2026-05-05 08:47 45.70361 -3.55850 36952 ft 447 kts 219°
2026-05-05 08:48 45.65612 -3.61505 36953 ft 446 kts 219°
2026-05-05 08:48 45.60833 -3.67183 36960 ft 447 kts 219°
2026-05-05 08:49 45.56045 -3.72858 36965 ft 447 kts 219°
2026-05-05 08:49 45.51244 -3.78536 36962 ft 447 kts 219°
2026-05-05 08:50 45.46472 -3.84165 36958 ft 448 kts 219°
2026-05-05 08:50 45.41664 -3.89825 36966 ft 448 kts 219°
2026-05-05 08:51 45.36846 -3.95484 36969 ft 449 kts 219°
2026-05-05 08:51 45.32102 -4.01044 36966 ft 448 kts 219°
2026-05-05 08:52 45.27298 -4.06660 36968 ft 449 kts 220°
2026-05-05 08:52 45.22473 -4.12289 36966 ft 449 kts 220°
2026-05-05 08:53 45.17638 -4.17916 36966 ft 449 kts 220°
2026-05-05 08:53 45.12803 -4.23531 36971 ft 449 kts 220°
2026-05-05 08:54 45.07974 -4.29125 36969 ft 448 kts 220°
2026-05-05 08:54 45.03171 -4.34679 36966 ft 448 kts 220°
2026-05-05 08:55 44.98339 -4.40253 36970 ft 448 kts 220°
2026-05-05 08:55 44.93498 -4.45825 36963 ft 448 kts 220°
2026-05-05 08:56 44.88667 -4.51373 36963 ft 448 kts 220°
2026-05-05 08:56 44.83858 -4.56883 36968 ft 448 kts 220°
2026-05-05 08:57 44.79048 -4.62382 36969 ft 448 kts 220°
2026-05-05 08:57 44.74201 -4.67911 36970 ft 448 kts 220°
2026-05-05 08:58 44.69344 -4.73440 36980 ft 449 kts 220°
2026-05-05 08:58 44.64495 -4.78945 36976 ft 449 kts 220°
2026-05-05 08:59 44.59636 -4.84451 36979 ft 449 kts 220°
2026-05-05 08:59 44.54772 -4.89952 36983 ft 449 kts 220°
2026-05-05 09:00 44.49872 -4.95407 36984 ft 449 kts 217°
2026-05-05 09:00 44.44817 -5.00467 36990 ft 450 kts 217°
2026-05-05 09:01 44.39741 -5.05578 36991 ft 450 kts 217°
2026-05-05 09:01 44.34638 -5.10705 36994 ft 450 kts 217°
2026-05-05 09:02 44.29551 -5.15795 36995 ft 449 kts 217°
2026-05-05 09:02 44.24499 -5.20839 36999 ft 449 kts 217°
2026-05-05 09:03 44.19407 -5.25909 36999 ft 449 kts 217°
2026-05-05 09:03 44.14327 -5.30958 36990 ft 447 kts 217°
2026-05-05 09:04 44.09250 -5.35993 36993 ft 447 kts 217°
2026-05-05 09:04 44.04206 -5.40984 36996 ft 447 kts 217°
2026-05-05 09:05 43.99136 -5.45990 37002 ft 447 kts 217°
2026-05-05 09:05 43.94068 -5.50984 37003 ft 447 kts 217°
2026-05-05 09:06 43.88996 -5.55973 37002 ft 447 kts 217°
2026-05-05 09:06 43.83923 -5.60950 37004 ft 446 kts 217°
2026-05-05 09:07 43.78883 -5.65883 37007 ft 446 kts 218°
2026-05-05 09:07 43.73807 -5.70844 37012 ft 446 kts 217°
2026-05-05 09:08 43.68728 -5.75797 37019 ft 447 kts 217°
2026-05-05 09:08 43.63637 -5.80749 37014 ft 447 kts 217°
2026-05-05 09:09 43.58548 -5.85690 37012 ft 447 kts 217°
2026-05-05 09:09 43.53460 -5.90618 37008 ft 446 kts 217°
2026-05-05 09:10 43.48378 -5.95531 37016 ft 445 kts 217°
2026-05-05 09:10 43.43301 -6.00429 37018 ft 445 kts 217°
2026-05-05 09:11 43.38227 -6.05313 37003 ft 445 kts 217°
2026-05-05 09:11 43.33187 -6.10156 37004 ft 444 kts 217°
2026-05-05 09:12 43.28089 -6.15046 37007 ft 444 kts 217°
2026-05-05 09:12 43.23041 -6.19874 37004 ft 444 kts 217°
2026-05-05 09:13 43.17976 -6.24709 37010 ft 444 kts 218°
2026-05-05 09:13 43.12900 -6.29545 37010 ft 444 kts 218°
2026-05-05 09:14 43.07810 -6.34384 37008 ft 445 kts 218°
2026-05-05 09:14 43.02725 -6.39211 37020 ft 445 kts 218°
2026-05-05 09:15 42.97631 -6.44035 37025 ft 445 kts 218°
2026-05-05 09:15 42.92555 -6.48832 37033 ft 446 kts 218°
2026-05-05 09:16 42.87436 -6.53659 37045 ft 447 kts 218°
2026-05-05 09:16 42.82316 -6.58478 37049 ft 448 kts 218°
2026-05-05 09:17 42.77202 -6.63281 37053 ft 448 kts 218°
2026-05-05 09:17 42.72065 -6.68096 37048 ft 446 kts 218°
2026-05-05 09:18 42.66950 -6.72880 37043 ft 445 kts 218°
2026-05-05 09:18 42.61876 -6.77618 37046 ft 446 kts 218°
2026-05-05 09:19 42.56760 -6.82383 37050 ft 446 kts 218°
2026-05-05 09:19 42.51637 -6.87146 37045 ft 445 kts 218°
2026-05-05 09:20 42.46530 -6.91884 37042 ft 445 kts 218°
2026-05-05 09:20 42.41420 -6.96616 37046 ft 445 kts 218°
2026-05-05 09:21 42.36313 -7.01336 37041 ft 444 kts 218°
2026-05-05 09:21 42.31237 -7.06106 37048 ft 443 kts 221°
2026-05-05 09:22 42.26837 -7.11767 37049 ft 438 kts 233°
2026-05-05 09:22 42.23360 -7.18453 36972 ft 433 kts 242°
2026-05-05 09:22 42.21789 -7.21906 36512 ft 433 kts 241°
2026-05-05 09:23 42.20201 -7.25379 35773 ft 436 kts 241°
2026-05-05 09:23 42.18592 -7.28881 34880 ft 442 kts 241°
2026-05-05 09:23 42.17510 -7.31229 34261 ft 446 kts 241°
2026-05-05 09:23 42.15862 -7.34795 33313 ft 449 kts 241°
2026-05-05 09:24 42.14207 -7.38368 32443 ft 450 kts 241°
2026-05-05 09:24 42.12555 -7.41927 31774 ft 447 kts 241°
2026-05-05 09:24 42.10913 -7.45461 31176 ft 442 kts 242°
2026-05-05 09:24 42.09287 -7.48955 30669 ft 437 kts 242°
2026-05-05 09:25 42.07680 -7.52407 30148 ft 432 kts 242°
2026-05-05 09:25 42.06095 -7.55808 29554 ft 427 kts 242°
2026-05-05 09:25 42.04528 -7.59169 29013 ft 421 kts 242°
2026-05-05 09:25 42.02984 -7.62478 28481 ft 415 kts 242°
2026-05-05 09:26 42.01464 -7.65731 27972 ft 410 kts 242°
2026-05-05 09:26 41.99953 -7.68962 27441 ft 405 kts 242°
2026-05-05 09:26 41.98456 -7.72159 26922 ft 400 kts 242°
2026-05-05 09:26 41.96978 -7.75313 26415 ft 396 kts 242°
2026-05-05 09:27 41.95519 -7.78422 25899 ft 393 kts 242°
2026-05-05 09:27 41.94065 -7.81518 25403 ft 389 kts 242°
2026-05-05 09:27 41.92627 -7.84576 24894 ft 386 kts 242°
2026-05-05 09:27 41.91196 -7.87616 24317 ft 385 kts 242°
2026-05-05 09:28 41.89751 -7.90689 23456 ft 392 kts 242°
2026-05-05 09:28 41.88318 -7.93733 22882 ft 391 kts 242°
2026-05-05 09:28 41.86846 -7.96854 22458 ft 399 kts 242°
2026-05-05 09:28 41.85353 -8.00016 21932 ft 402 kts 242°
2026-05-05 09:29 41.83853 -8.03181 21404 ft 400 kts 242°
2026-05-05 09:29 41.82245 -8.06211 20877 ft 399 kts 233°
2026-05-05 09:29 41.80253 -8.08795 20358 ft 400 kts 222°
2026-05-05 09:29 41.77921 -8.10839 19821 ft 400 kts 213°
2026-05-05 09:30 41.75494 -8.12627 19294 ft 396 kts 213°
2026-05-05 09:30 41.73089 -8.14416 18746 ft 392 kts 213°
2026-05-05 09:30 41.70697 -8.16142 18212 ft 391 kts 209°
2026-05-05 09:30 41.68168 -8.17480 17653 ft 390 kts 202°
2026-05-05 09:31 41.65761 -8.18567 17173 ft 385 kts 202°
2026-05-05 09:31 41.63197 -8.19735 16641 ft 381 kts 202°
2026-05-05 09:31 41.60694 -8.20879 16126 ft 378 kts 202°
2026-05-05 09:31 41.58222 -8.22009 15620 ft 374 kts 202°
2026-05-05 09:32 41.55769 -8.23131 15112 ft 372 kts 202°
2026-05-05 09:32 41.53325 -8.24247 14610 ft 369 kts 202°
2026-05-05 09:32 41.50899 -8.25355 14091 ft 368 kts 202°
2026-05-05 09:32 41.48481 -8.26457 13561 ft 365 kts 202°
2026-05-05 09:33 41.46125 -8.27530 13069 ft 361 kts 202°
2026-05-05 09:33 41.43754 -8.28608 12578 ft 357 kts 202°
2026-05-05 09:33 41.41406 -8.29676 12095 ft 354 kts 202°
2026-05-05 09:33 41.39087 -8.30730 11615 ft 351 kts 202°
2026-05-05 09:34 41.36789 -8.31773 11143 ft 348 kts 202°
2026-05-05 09:34 41.34489 -8.32817 10673 ft 346 kts 202°
2026-05-05 09:34 41.32237 -8.33837 10424 ft 336 kts 202°
2026-05-05 09:34 41.30123 -8.34792 10300 ft 323 kts 202°
2026-05-05 09:35 41.28031 -8.35737 10182 ft 311 kts 202°
2026-05-05 09:35 41.24020 -8.37553 9676 ft 296 kts 202°
2026-05-05 09:35 41.22079 -8.38431 9374 ft 294 kts 202°
2026-05-05 09:36 41.20149 -8.39304 9007 ft 292 kts 202°
2026-05-05 09:36 41.18223 -8.40174 8653 ft 289 kts 202°
2026-05-05 09:36 41.16332 -8.41027 8309 ft 286 kts 202°
2026-05-05 09:36 41.14460 -8.41873 7985 ft 282 kts 202°
2026-05-05 09:37 41.12586 -8.42718 7486 ft 285 kts 202°
2026-05-05 09:37 41.10719 -8.43558 7144 ft 283 kts 202°
2026-05-05 09:37 41.08853 -8.44398 6785 ft 282 kts 202°
2026-05-05 09:37 41.07004 -8.45230 6427 ft 280 kts 201°
2026-05-05 09:38 41.05184 -8.46049 6072 ft 278 kts 201°
2026-05-05 09:38 41.03361 -8.46868 5728 ft 275 kts 201°
2026-05-05 09:38 41.01596 -8.47804 5376 ft 270 kts 215°
2026-05-05 09:38 41.00304 -8.49520 5032 ft 261 kts 243°
2026-05-05 09:39 40.99759 -8.51762 4709 ft 255 kts 261°
2026-05-05 09:39 40.99438 -8.54079 4378 ft 251 kts 262°
2026-05-05 09:39 40.99131 -8.56288 4093 ft 248 kts 261°
2026-05-05 09:39 40.98949 -8.58574 3978 ft 249 kts 278°
2026-05-05 09:40 40.99533 -8.60670 3753 ft 241 kts 308°
2026-05-05 09:40 41.00800 -8.61997 3604 ft 232 kts 338°
2026-05-05 09:40 41.02353 -8.62455 3404 ft 227 kts 350°
2026-05-05 09:40 41.03894 -8.62766 3197 ft 221 kts 350°
2026-05-05 09:41 41.05389 -8.63086 3010 ft 213 kts 349°
2026-05-05 09:41 41.06794 -8.63420 2995 ft 197 kts 348°
2026-05-05 09:41 41.08089 -8.63743 3008 ft 184 kts 348°
2026-05-05 09:41 41.09362 -8.64071 3000 ft 188 kts 348°
2026-05-05 09:42 41.10637 -8.64404 3000 ft 183 kts 348°
2026-05-05 09:42 41.11821 -8.64713 2994 ft 164 kts 348°
2026-05-05 09:42 41.12920 -8.65003 2989 ft 157 kts 348°
2026-05-05 09:42 41.13942 -8.65263 2764 ft 144 kts 348°
2026-05-05 09:43 41.14903 -8.65516 2439 ft 138 kts 347°
2026-05-05 09:43 41.15842 -8.65783 2069 ft 138 kts 347°
2026-05-05 09:43 41.16788 -8.66050 1674 ft 139 kts 347°
2026-05-05 09:43 41.17719 -8.66287 1431 ft 131 kts 348°
2026-05-05 09:44 41.18591 -8.66526 1208 ft 125 kts 346°
2026-05-05 09:44 41.19458 -8.66742 1054 ft 131 kts 349°
2026-05-05 09:44 41.20374 -8.66979 978 ft 136 kts 348°
2026-05-05 09:44 41.21293 -8.67224 795 ft 133 kts 349°
2026-05-05 09:45 41.22183 -8.67444 574 ft 129 kts 349°
2026-05-05 09:45 41.23049 -8.67674 332 ft 125 kts 351°
2026-05-05 09:45 41.23865 -8.67877 226 ft 113 kts 349°
2026-05-05 09:45 41.24493 -8.68044 220 ft 79 kts 348°
2026-05-05 09:46 41.24820 -8.68129 210 ft 29 kts 350°
2026-05-05 09:46 41.25033 -8.68173 199 ft 33 kts
2026-05-05 09:46 41.25232 -8.68123 208 ft 18 kts 20°
2026-05-05 09:46 41.25313 -8.68076 202 ft 7 kts 30°
2026-05-05 09:47 41.25319 -8.68038 200 ft 7 kts 105°
2026-05-05 09:47 41.25253 -8.68011 203 ft 17 kts 171°
2026-05-05 09:47 41.25131 -8.67984 212 ft 17 kts 168°
2026-05-05 09:47 41.25017 -8.67947 217 ft 17 kts 170°
2026-05-05 09:48 41.24905 -8.67918 225 ft 17 kts 166°
2026-05-05 09:48 41.24792 -8.67861 226 ft 18 kts 148°
2026-05-05 09:48 41.24674 -8.67805 230 ft 19 kts 169°
2026-05-05 09:48 41.24545 -8.67769 233 ft 20 kts 169°
2026-05-05 09:49 41.24403 -8.67736 233 ft 22 kts 169°
2026-05-05 09:49 41.24273 -8.67659 235 ft 22 kts 129°
2026-05-05 09:49 41.24197 -8.67573 234 ft 14 kts 165°
2026-05-05 09:49 41.24114 -8.67553 234 ft 11 kts 168°
2026-05-05 09:50 41.24076 -8.67548 235 ft 3 kts 194°
2026-05-05 09:50 41.24062 -8.67589 236 ft 7 kts 257°
2026-05-05 09:50 41.24058 -8.67618 236 ft 2 kts 258°
2026-05-05 09:50 41.24054 -8.67639 234 ft 3 kts 258°
2026-05-05 09:51 41.24052 -8.67654 235 ft 0 kts 259°